Tracking 19297 objects as of 21-Nov-2018
HD Live streaming from Space Station
objects crossing your sky now

RADUGA 17

Track RADUGA 17 now!
RADUGA 17 is classified as:


NORAD ID: 16250
Int'l Code: 1985-107A
Perigee: 35,785.4 km
Apogee: 35,855.0 km
Inclination: 13.9 °
Period: 1,437.4 minutes
Semi major axis: 42191 km
RCS: 3.981 m2 (large)
Launch date: November 15, 1985
Source: Commonwealth of Independent States (former USSR) (CIS)
Launch site: TYURATAM MISSILE AND SPACE COMPLEX (TTMTR)
aabbcc
Your satellite tracking list
Your tracking list is empty




NASA's NSSDC Master Catalog

Two Line Element Set (TLE):
1 16250U 85107A   18324.93347166 -.00000307  00000-0  00000+0 0  9992
2 16250  13.8921 341.5701 0008243 167.0782  26.2287  1.00177443124101
Source of the keplerian elements: AFSPC